Location: Clanezzo
(45.7500°N, 9.6000°E)
Time: 17:39:01
(UTC+00:00)

EO-79 - Pass Details

Date: 01 July 2022
Orbit: 588 x 603 km, 98.0° (Epoch: 18 August)

Event Time Altitude Azimuth Distance (km) Brightness Sun altitude
Rises 02:32:42 0° 356° (N) 2,856 ? -9.1°
Reaches altitude 10° 02:35:44 10° 332° (NNW) 1,951 ? -8.7°
Maximum altitude 02:38:00 14° 299° (WNW) 1,680 ? -8.5°
Drops below altitude 10° 02:40:16 10° 266° (W) 1,948 ? -8.2°
Enters shadow 02:41:23 - 255° (WSW) 2,234 ? -8.0°
